Tracking 19846 objects as of 19-Sep-2019
HD Live streaming from Space Station
objects crossing your sky now

SYNCOM 2 (A 26)

Track SYNCOM 2 (A 26) now!
SYNCOM 2 (A 26) is classified as:


NORAD ID: 634
Int'l Code: 1963-031A
Perigee: 35,771.8 km
Apogee: 35,822.2 km
Inclination: 34.6 °
Period: 1,436.3 minutes
Semi major axis: 42168 km
RCS: 50.1187 m2 (large)
Launch date: July 26, 1963
Source: United States (US)
Launch site: AIR FORCE EASTERN TEST RANGE (AFETR)
aabbcc
Your satellite tracking list
Your tracking list is empty




NASA's NSSDC Master Catalog

Two Line Element Set (TLE):
1   634U 63031A   19258.76518012 -.00000034  00000-0  00000+0 0  9998
2   634  34.5797 334.6132 0005972 142.2713 220.7170  1.00260126205627
Source of the keplerian elements: AFSPC